Home   Weather   Cuenca   Past weeks

Flag for Ecuador Past Weather in Cuenca, Ecuador — Yesterday and Last 2 Weeks

Now
68 °F

Passing clouds.


Feels Like: 68 °F
Forecast: N/A
Wind: 17 mph from Southwest

Location: Cuenca / Mariscal Lamar

Current Time: Jan 18, 2017 at 5:36:54 pm

Latest Report: Jan 18, 2017 at 5:00 pm


Visibility: N/A

Pressure: 30.15 "Hg (22.39 "Hg at 2554m altitude)

Humidity: 49%

Dew Point: 48 °F

Location of CuencaLocation

Past Weather in Cuenca — Graph

°F

Cuenca Temperature Yesterday

Maximum temperature yesterday: 73 °F (at 2:00 pm)
Minimum temperature yesterday: 50 °F (at 5:00 am)
Average temperature yesterday: 60 °F

High & Low Weather Summary for the Past Weeks

 TemperatureHumidityPressure
High77 °F (Jan 18, 3:00 pm)100% (Jan 5, 3:30 pm)30.39 "Hg (Jan 5, 3:30 pm)
Low50 °F (Jan 4, 4:00 am)22% (Jan 18, 3:00 pm)30.09 "Hg (Jan 4, 5:00 pm)
Average60 °F76%30.25 "Hg
* Reported Jan 3 4:00 pm — Jan 18 4:00 pm, Cuenca, Weather by CustomWeather, © 2017

Note: Actual official high and low records may vary slightly from our data, if they occured in-between our weather recording intervals... More about our weather records

Advertising

Cuenca Weather History for the Previous 24 Hours

Scroll right to see more
 ConditionsComfort  
Time TempWeatherWind HumidityBarometerVisibility
4:00 pm
Wed, Jan 18
75 °FPassing clouds.18 mph22%30.15 "HgN/A
3:00 pm77 °FPassing clouds.13 mph22%30.15 "HgN/A
2:00 pm73 °FPassing clouds.6 mph38%30.18 "HgN/A
1:00 pm72 °FPassing clouds.6 mph38%30.24 "HgN/A
12:00 pm68 °FPassing clouds.6 mph40%30.27 "HgN/A
11:00 am66 °FPassing clouds.6 mph49%30.30 "HgN/A
10:00 am64 °FPassing clouds.6 mph52%30.33 "HgN/A
9:00 am57 °FPartly sunny.2 mph51%30.36 "HgN/A
8:00 am55 °FPartly sunny.5 mph51%30.36 "HgN/A
7:00 am54 °FPartly sunny.5 mph51%30.33 "HgN/A
6:00 am54 °FPassing clouds.3 mph54%30.30 "HgN/A
5:00 am54 °FCool.6 mph58%30.27 "HgN/A
4:00 am54 °FCool.7 mph63%30.27 "HgN/A
3:00 am54 °FCool.6 mph67%30.27 "HgN/A
2:00 am54 °FCool.6 mph72%30.27 "HgN/A
1:00 am55 °FCool.7 mph67%30.30 "HgN/A
12:00 am55 °FCool.2 mph82%30.33 "HgN/A
11:00 pm
Tue, Jan 17
55 °FCool.5 mph88%30.33 "HgN/A
10:00 pm57 °FCool.6 mph82%30.33 "HgN/A
9:00 pm59 °FPassing clouds.6 mph77%30.30 "HgN/A
8:00 pm59 °FPassing clouds.10 mph77%30.27 "HgN/A
7:00 pm59 °FPassing clouds.10 mph77%30.24 "HgN/A
6:00 pm63 °FScattered clouds.15 mph68%30.18 "HgN/A
5:00 pm66 °FScattered clouds.18 mph60%30.15 "HgN/A
Weather by CustomWeather, © 2017

See weather overviewHow to use our weather pages